When you browse on this site, cookies collect data to enhance your experience and personalize the content and advertising you see.
Visit our Privacy Policy to learn more. By continuing to use the site, you agree to this use of cookies and data.
  • In Latvia
  • List of Countries
  • For 7 days
  • Water Temperature
  • Satellite Maps
  • Weather Map
  • Weather Widgets
  • user-avatar
    Login

    Hourly Weather Brikama

    Today, 23 April, Tuesday

    Time Temperature Precipitation Wind Pressure Humidity
    00:00 +22°C° 0 mm 6 mps 755 mmHg 67%
    01:00 +22°C° 0 mm 5 mps 755 mmHg 69%
    02:00 +22°C° 0 mm 5 mps 755 mmHg 71%
    03:00 +22°C° 0 mm 5 mps 755 mmHg 73%
    04:00 +21°C° 0 mm 5 mps 755 mmHg 74%
    05:00 +21°C° 0 mm 5 mps 755 mmHg 77%
    06:00 +22°C° 0 mm 5 mps 755 mmHg 73%
    07:00 +23°C° 0 mm 5 mps 755 mmHg 69%
    08:00 +23°C° 0 mm 5 mps 755 mmHg 65%
    09:00 +26°C° 0 mm 5 mps 755 mmHg 56%
    10:00 +28°C° 0 mm 5 mps 755 mmHg 48%
    11:00 +30°C° 0 mm 5 mps 755 mmHg 39%
    12:00 +30°C° 0 mm 5 mps 755 mmHg 39%
    13:00 +32°C° 0 mm 6 mps 754 mmHg 39%
    14:00 +32°C° 0 mm 6 mps 754 mmHg 39%
    15:00 +30°C° 0 mm 6 mps 754 mmHg 45%
    16:00 +28°C° 0 mm 7 mps 753 mmHg 51%
    17:00 +27°C° 0 mm 7 mps 753 mmHg 57%
    18:00 +26°C° 0 mm 7 mps 754 mmHg 61%
    19:00 +24°C° 0 mm 6 mps 754 mmHg 64%
    20:00 +23°C° 0 mm 6 mps 754 mmHg 68%
    21:00 +23°C° 0 mm 6 mps 755 mmHg 69%
    22:00 +23°C° 0 mm 5 mps 755 mmHg 70%
    23:00 +23°C° 0 mm 5 mps 755 mmHg 71%

    Tomorrow, 24 April, Wednesday

    Time Temperature Precipitation Wind Pressure Humidity
    00:00 +23°C° 0 mm 5 mps 755 mmHg 71%
    01:00 +22°C° 0 mm 5 mps 755 mmHg 72%
    02:00 +22°C° 0 mm 5 mps 754 mmHg 72%
    03:00 +22°C° 0 mm 5 mps 754 mmHg 73%
    04:00 +22°C° 0 mm 5 mps 754 mmHg 73%
    05:00 +22°C° 0 mm 5 mps 754 mmHg 74%
    06:00 +23°C° 0 mm 5 mps 755 mmHg 69%
    07:00 +25°C° 0 mm 4 mps 755 mmHg 63%
    08:00 +25°C° 0 mm 4 mps 756 mmHg 58%
    09:00 +27°C° 0 mm 4 mps 756 mmHg 51%
    10:00 +29°C° 0 mm 3 mps 756 mmHg 44%
    11:00 +31°C° 0 mm 3 mps 756 mmHg 37%
    12:00 +32°C° 0 mm 4 mps 756 mmHg 36%
    13:00 +33°C° 0 mm 4 mps 755 mmHg 36%
    14:00 +34°C° 0 mm 5 mps 755 mmHg 36%
    15:00 +32°C° 0 mm 5 mps 754 mmHg 42%
    16:00 +29°C° 0 mm 6 mps 754 mmHg 49%
    17:00 +28°C° 0 mm 6 mps 754 mmHg 55%
    18:00 +27°C° 0 mm 6 mps 754 mmHg 59%
    19:00 +26°C° 0 mm 5 mps 755 mmHg 62%
    20:00 +25°C° 0 mm 5 mps 755 mmHg 66%
    21:00 +25°C° 0 mm 5 mps 756 mmHg 66%
    22:00 +25°C° 0 mm 5 mps 756 mmHg 66%
    23:00 +25°C° 0 mm 5 mps 756 mmHg 66%

    Day after tomorrow, 25 April, Thursday

    Time Temperature Precipitation Wind Pressure Humidity
    00:00 +23°C° 0 mm 5 mps 756 mmHg 67%
    01:00 +23°C° 0 mm 5 mps 756 mmHg 68%
    02:00 +23°C° 0 mm 5 mps 755 mmHg 69%
    03:00 +23°C° 0 mm 5 mps 755 mmHg 70%
    04:00 +23°C° 0 mm 5 mps 755 mmHg 71%
    05:00 +22°C° 0 mm 5 mps 755 mmHg 71%
    06:00 +23°C° 0 mm 4 mps 755 mmHg 66%
    07:00 +25°C° 0 mm 4 mps 756 mmHg 61%
    08:00 +26°C° 0 mm 4 mps 756 mmHg 56%
    09:00 +28°C° 0 mm 4 mps 757 mmHg 49%
    10:00 +29°C° 0 mm 3 mps 757 mmHg 43%
    11:00 +31°C° 0 mm 3 mps 757 mmHg 36%
    12:00 +32°C° 0 mm 4 mps 756 mmHg 36%
    13:00 +33°C° 0 mm 5 mps 755 mmHg 36%
    14:00 +33°C° 0 mm 6 mps 755 mmHg 35%
    15:00 +32°C° 0 mm 5 mps 754 mmHg 40%
    16:00 +29°C° 0 mm 5 mps 754 mmHg 44%
    17:00 +28°C° 0 mm 5 mps 754 mmHg 49%
    18:00 +27°C° 0 mm 6 mps 755 mmHg 53%
    19:00 +26°C° 0 mm 6 mps 755 mmHg 58%
    20:00 +24°C° 0 mm 6 mps 756 mmHg 62%
    21:00 +25°C° 0 mm 5 mps 756 mmHg 63%
    22:00 +25°C° 0 mm 5 mps 756 mmHg 64%
    23:00 +25°C° 0 mm 5 mps 757 mmHg 65%

    26 April, Friday

    Time Temperature Precipitation Wind Pressure Humidity
    00:00 +23°C° 0 mm 5 mps 756 mmHg 66%
    01:00 +23°C° 0 mm 6 mps 756 mmHg 67%
    02:00 +23°C° 0 mm 6 mps 755 mmHg 68%
    03:00 +23°C° 0 mm 6 mps 755 mmHg 69%
    04:00 +23°C° 0 mm 5 mps 755 mmHg 70%
    05:00 +23°C° 0 mm 5 mps 755 mmHg 70%
    06:00 +25°C° 0 mm 5 mps 756 mmHg 66%
    07:00 +25°C° 0 mm 4 mps 756 mmHg 61%
    08:00 +26°C° 0 mm 4 mps 757 mmHg 56%
    09:00 +28°C° 0 mm 4 mps 757 mmHg 49%
    10:00 +30°C° 0 mm 4 mps 757 mmHg 43%
    11:00 +32°C° 0 mm 4 mps 757 mmHg 36%
    12:00 +33°C° 0 mm 4 mps 756 mmHg 35%
    13:00 +33°C° 0 mm 5 mps 755 mmHg 34%
    14:00 +33°C° 0 mm 5 mps 755 mmHg 32%
    15:00 +32°C° 0 mm 5 mps 754 mmHg 36%
    16:00 +30°C° 0 mm 5 mps 754 mmHg 39%
    17:00 +29°C° 0 mm 5 mps 754 mmHg 43%
    18:00 +28°C° 0 mm 5 mps 755 mmHg 48%
    19:00 +27°C° 0 mm 5 mps 755 mmHg 54%
    20:00 +26°C° 0 mm 5 mps 756 mmHg 59%
    21:00 +25°C° 0 mm 5 mps 756 mmHg 61%
    22:00 +25°C° 0 mm 5 mps 756 mmHg 63%
    23:00 +24°C° 0 mm 6 mps 756 mmHg 65%

    27 April, Saturday

    Time Temperature Precipitation Wind Pressure Humidity
    00:00 +25°C° 0 mm 5 mps 755 mmHg 66%
    01:00 +23°C° 0 mm 5 mps 755 mmHg 67%
    02:00 +23°C° 0 mm 5 mps 754 mmHg 68%
    03:00 +23°C° 0 mm 5 mps 754 mmHg 69%
    04:00 +23°C° 0 mm 6 mps 754 mmHg 70%
    05:00 +23°C° 0 mm 6 mps 754 mmHg 71%
    06:00 +25°C° 0 mm 5 mps 755 mmHg 66%
    07:00 +25°C° 0 mm 5 mps 755 mmHg 61%
    08:00 +26°C° 0 mm 5 mps 756 mmHg 56%
    09:00 +28°C° 0 mm 5 mps 756 mmHg 49%
    10:00 +30°C° 0 mm 4 mps 756 mmHg 41%
    11:00 +33°C° 0 mm 4 mps 755 mmHg 33%
    12:00 +33°C° 0 mm 5 mps 755 mmHg 33%
    13:00 +33°C° 0 mm 5 mps 754 mmHg 33%
    14:00 +34°C° 0 mm 5 mps 753 mmHg 33%
    15:00 +32°C° 0 mm 5 mps 753 mmHg 39%
    16:00 +30°C° 0 mm 6 mps 753 mmHg 44%
    17:00 +28°C° 0 mm 6 mps 753 mmHg 50%
    18:00 +27°C° 0 mm 6 mps 754 mmHg 55%
    19:00 +26°C° 0 mm 6 mps 755 mmHg 60%
    20:00 +24°C° 0 mm 6 mps 755 mmHg 65%
    21:00 +24°C° 0 mm 6 mps 755 mmHg 66%
    22:00 +24°C° 0 mm 6 mps 756 mmHg 68%
    23:00 +24°C° 0 mm 6 mps 756 mmHg 69%

    28 April, Sunday

    Time Temperature Precipitation Wind Pressure Humidity
    00:00 +23°C° 0 mm 5 mps 755 mmHg 70%
    01:00 +23°C° 0 mm 5 mps 755 mmHg 71%
    02:00 +23°C° 0 mm 5 mps 754 mmHg 71%
    03:00 +23°C° 0 mm 5 mps 754 mmHg 72%
    04:00 +23°C° 0 mm 5 mps 754 mmHg 72%
    05:00 +23°C° 0 mm 5 mps 754 mmHg 72%
    06:00 +23°C° 0 mm 5 mps 755 mmHg 67%
    07:00 +25°C° 0 mm 5 mps 755 mmHg 62%
    08:00 +26°C° 0 mm 5 mps 755 mmHg 57%
    09:00 +28°C° 0 mm 5 mps 755 mmHg 49%
    10:00 +30°C° 0 mm 5 mps 755 mmHg 41%
    11:00 +33°C° 0 mm 4 mps 755 mmHg 33%
    12:00 +34°C° 0 mm 4 mps 755 mmHg 33%
    13:00 +35°C° 0 mm 5 mps 754 mmHg 33%
    14:00 +35°C° 0 mm 5 mps 753 mmHg 32%
    15:00 +34°C° 0 mm 6 mps 753 mmHg 37%
    16:00 +32°C° 0 mm 6 mps 753 mmHg 42%
    17:00 +29°C° 0 mm 7 mps 753 mmHg 47%
    18:00 +29°C° 0 mm 7 mps 753 mmHg 48%
    19:00 +28°C° 0 mm 7 mps 754 mmHg 49%
    20:00 +28°C° 0 mm 7 mps 754 mmHg 50%
    21:00 +27°C° 0 mm 7 mps 755 mmHg 51%
    22:00 +27°C° 0 mm 6 mps 755 mmHg 51%
    23:00 +27°C° 0 mm 6 mps 755 mmHg 52%
    Show more